Wind_Speed
20 21 22 22 24 25 24 22 21 22 23 24 24 24 24 23 22 22 20 19 18 18 17 17 17 16 15 14 13 13 13 12 11 10 10 9 9 9 9 8 7 7 6 6 5 5 4 3 3
22 23 24 25 26 26 25 23 22 23 24 25 26 26 26 26 25 24 22 21 20 19 19 18 18 18 17 16 16 15 14 14 13 12 11 11 10 10 10 9 9 8 8 7 7 6 6 5 4
24 25 26 27 27 27 26 24 24 25 26 27 28 28 28 28 27 26 25 24 23 22 21 20 20 19 19 18 17 17 16 16 15 14 13 13 12 11 11 11 10 10 9 9 8 7 7 7 6
26 27 28 29 29 27 28 27 27 28 28 29 29 30 30 30 29 28 27 26 25 24 23 23 22 21 21 20 19 18 18 18 17 15 15 14 14 13 13 12 11 11 10 10 9 9 8 8 8
28 29 30 31 30 29 28 29 29 30 30 30 30 31 31 31 30 30 30 29 28 27 26 25 24 23 23 22 21 21 20 20 19 18 17 16 15 15 14 13 13 12 12 11 10 10 9 9 9
29 29 31 31 31 30 30 30 31 31 32 31 32 32 32 32 32 32 32 32 31 30 29 27 26 26 25 24 23 23 22 21 21 20 19 18 17 16 16 15 14 13 12 12 11 11 10 10 10
29 30 31 32 32 31 31 32 32 32 32 32 32 33 33 34 34 34 34 34 33 32 31 30 29 28 27 26 25 24 23 23 22 22 21 20 18 17 17 16 15 15 14 13 13 12 12 11 11
29 30 31 32 33 32 32 33 33 33 33 33 33 34 34 34 35 35 35 35 35 34 34 33 31 30 29 29 28 26 25 25 24 23 23 22 21 20 18 17 17 16 15 15 14 14 13 12 12
30 31 31 31 33 33 33 34 34 34 34 33 34 34 34 35 36 36 36 37 37 36 36 35 34 33 32 31 30 29 28 27 26 26 25 24 23 22 20 19 19 18 17 16 15 15 14 14 13
31 32 31 31 33 34 34 35 35 35 35 34 35 35 35 36 37 37 38 38 39 39 38 37 36 35 34 33 32 31 30 29 29 28 27 26 25 24 23 21 20 20 19 18 17 16 16 15 15
31 32 32 32 33 34 35 35 35 35 35 36 36 36 36 37 38 38 37 38 40 41 41 40 39 38 37 36 34 33 32 31 30 30 29 28 27 26 25 23 22 21 21 20 19 18 17 17 16
32 32 32 33 33 35 35 36 36 35 35 37 37 38 37 37 38 39 39 39 40 41 42 42 41 40 39 39 37 35 34 33 32 31 31 30 29 28 27 26 24 23 23 22 22 21 20 18 18
32 32 33 33 33 34 34 36 36 35 35 36 37 38 38 38 39 39 40 40 41 42 43 43 43 43 42 41 40 38 37 35 34 33 32 32 31 30 29 28 27 26 25 24 24 24 22 21 20
33 33 32 32 33 33 33 35 37 36 35 36 36 37 38 38 38 39 40 40 41 42 43 44 44 45 44 43 42 40 39 38 37 35 34 33 33 33 32 31 30 29 28 26 25 25 25 23 22
32 32 31 32 33 33 34 35 36 36 36 35 36 37 38 38 38 39 39 40 42 42 43 44 46 46 46 45 44 43 42 41 39 37 37 36 35 35 34 33 33 31 30 29 28 27 26 25 24
32 31 31 31 32 33 34 35 35 35 36 35 35 36 37 38 38 39 39 40 41 43 44 45 46 47 47 46 46 45 44 43 42 40 39 38 37 37 36 35 35 33 32 31 31 29 28 27 26
30 30 30 31 32 33 35 35 34 35 35 35 35 35 36 37 38 39 40 40 42 42 43 45 46 47 48 47 47 47 46 45 44 43 41 39 38 38 37 36 36 35 34 33 33 31 30 29 29
29 29 29 30 30 32 33 34 35 35 35 35 35 35 36 37 38 39 40 41 42 43 43 44 47 48 48 48 48 48 47 46 46 45 43 42 40 38 38 38 37 37 36 35 34 33 33 31 31
28 28 29 29 29 30 32 33 33 35 35 35 35 36 36 36 37 39 40 41 42 43 44 44 46 48 49 48 47 47 47 46 46 46 45 44 42 40 40 39 39 39 38 37 37 36 35 34 32
28 28 29 29 29 30 31 32 32 33 34 35 35 36 36 36 37 38 39 41 43 44 44 44 45 48 49 49 48 47 47 47 47 46 46 46 44 41 41 40 40 40 39 39 38 38 37 36 35
28 28 29 29 29 29 30 31 32 32 33 34 35 35 36 37 37 38 39 40 42 43 45 45 46 47 49 50 49 48 48 48 48 47 46 46 46 44 42 41 41 40 40 40 40 39 39 38 37
28 28 29 29 29 28 28 30 29 31 32 33 34 34 35 36 37 37 38 40 42 43 45 45 46 47 49 51 50 49 49 48 47 47 47 47 46 46 43 41 42 41 41 41 41 40 40 40 39
27 27 28 28 28 28 27 29 29 30 31 32 32 32 33 35 36 37 38 39 41 42 44 45 46 48 50 51 51 51 50 49 48 48 49 48 47 47 46 44 42 42 42 42 42 42 42 42 41
27 27 28 28 27 28 27 29 30 31 30 31 31 31 31 33 35 36 37 38 40 41 42 44 45 48 50 49 51 52 52 51 49 49 50 49 48 48 48 47 45 43 42 42 43 43 43 43 42
26 27 29 29 29 29 28 29 29 30 30 30 30 30 31 32 34 35 35 37 39 40 42 43 45 47 49 49 51 52 53 53 51 50 51 49 49 48 48 47 47 45 43 42 43 44 44 44 43
26 26 27 29 30 30 29 28 28 27 27 28 28 29 30 31 32 33 34 36 37 39 42 44 45 47 49 50 51 52 53 53 53 52 52 51 50 49 49 48 48 48 47 45 44 44 45 45 45
26 26 27 27 29 30 29 27 27 27 26 27 27 28 28 30 31 32 33 34 36 38 40 43 44 45 48 49 50 51 52 52 52 52 53 53 52 52 51 50 49 49 48 47 47 47 46 46 46
26 26 26 26 27 28 28 27 27 26 26 26 26 27 27 28 29 30 31 33 34 36 38 41 43 44 47 49 50 51 51 51 51 50 50 52 53 53 52 51 50 50 49 48 49 48 48 48 48
26 27 27 27 27 26 27 26 26 26 27 25 26 28 28 27 28 30 30 31 33 35 37 39 41 43 46 48 50 51 50 50 50 50 50 51 52 53 53 52 52 51 50 50 50 49 48 49 49
27 26 27 27 27 27 27 25 25 25 27 28 27 28 29 29 30 30 30 31 31 33 35 38 39 41 43 45 48 49 50 51 51 51 50 51 52 53 53 53 53 54 53 52 52 51 50 50 50
Wind_Direction
261 260 260 257 256 256 258 259 257 254 252 250 249 248 248 247 246 246 246 244 242 239 236 233 232 229 227 226 223 220 219 218 215 212 210 208 207 207 204 202 201 205 205 200 196 196 195 193 186
263 262 261 260 258 259 261 262 258 255 252 250 249 248 248 246 245 245 244 242 241 240 238 236 234 231 229 228 226 224 222 221 220 217 216 212 210 210 209 209 209 212 213 212 209 208 211 213 210
263 262 262 261 260 261 263 262 259 256 253 250 250 249 249 247 245 243 242 240 239 239 239 238 235 233 231 229 226 225 225 224 223 221 221 219 215 214 214 216 216 215 216 216 215 217 221 221 219
264 263 262 261 261 262 263 261 258 255 253 251 251 250 249 247 244 242 241 240 239 238 238 237 236 234 232 230 228 227 225 226 226 225 225 226 224 221 219 219 218 217 218 221 221 224 226 225 223
265 263 263 262 262 262 263 261 257 255 253 252 250 250 248 245 243 241 240 239 239 238 238 237 236 234 233 232 230 229 228 228 228 226 226 227 228 228 224 222 221 222 222 223 225 225 227 227 226
267 266 264 264 264 263 261 258 257 255 254 251 249 248 247 244 242 241 240 239 238 238 237 236 235 234 234 233 232 232 231 230 229 228 227 228 228 229 229 226 226 226 227 227 228 227 228 228 228
269 268 266 266 264 262 260 257 255 255 254 252 250 248 246 243 242 241 239 239 238 237 237 236 235 235 234 233 233 233 232 231 230 229 229 229 228 228 229 228 228 229 229 230 230 230 230 229 229
271 270 268 267 265 262 259 257 255 255 255 253 251 248 245 242 241 240 239 238 237 236 236 235 235 235 234 233 233 233 233 232 231 230 230 230 230 229 229 230 230 229 230 231 231 231 230 230 230
273 272 270 269 266 262 259 257 255 254 254 254 252 250 246 243 241 241 239 237 237 236 235 235 235 235 234 234 233 233 233 233 233 232 231 231 230 230 230 231 231 230 230 231 232 231 231 232 232
275 274 271 268 265 261 258 257 255 254 254 253 253 250 248 245 243 242 240 238 237 236 236 235 235 235 235 234 233 233 233 233 234 234 233 232 231 230 230 231 231 231 231 231 232 233 233 233 232
276 275 271 266 265 262 259 258 255 255 255 253 252 251 248 246 244 243 243 241 239 238 237 235 235 235 235 234 233 233 233 233 233 233 232 231 231 231 230 230 231 232 232 231 232 233 233 233 233
276 275 272 267 266 262 259 258 255 255 255 253 252 251 248 245 244 244 244 242 240 239 237 235 234 234 235 235 235 234 234 234 233 233 233 232 231 231 230 230 231 232 232 232 232 233 233 233 234
277 275 272 268 266 263 261 258 254 255 255 252 250 249 248 246 245 244 244 242 240 238 237 235 234 234 234 235 235 235 235 235 235 236 236 234 232 232 232 232 232 233 233 233 233 233 234 233 234
279 275 271 267 267 264 263 259 254 253 255 253 250 248 247 246 244 243 242 241 239 238 237 236 234 233 234 234 234 235 235 235 237 236 237 235 233 233 233 233 234 234 234 234 236 235 235 235 236
280 275 271 268 267 265 264 260 255 252 254 253 250 248 247 246 245 244 242 241 239 238 236 236 235 234 234 234 234 234 235 236 237 238 238 237 234 233 234 234 235 234 235 235 236 236 236 236 236
281 275 271 268 267 266 266 263 256 253 254 253 251 249 247 246 244 243 242 241 240 239 237 236 236 235 234 234 234 235 235 236 237 238 239 237 236 234 234 234 235 235 235 236 236 236 236 236 236
281 276 273 270 269 267 266 263 258 254 254 253 252 250 248 246 244 243 242 242 241 240 239 237 236 235 234 234 234 235 236 237 237 237 238 237 237 235 235 235 235 235 236 236 236 236 237 237 237
281 277 274 272 272 270 267 262 258 253 253 253 252 250 249 247 245 244 244 243 242 241 241 239 237 235 234 234 235 235 235 236 236 236 236 237 237 236 234 234 235 235 236 237 237 237 237 237 237
280 278 276 276 276 272 269 265 259 254 253 252 251 250 249 249 247 246 245 244 243 241 241 239 238 236 235 234 234 235 234 235 235 236 237 237 237 237 236 235 234 235 236 237 237 237 238 237 237
280 279 278 276 278 274 269 265 259 256 255 253 252 251 250 249 248 247 245 244 242 242 241 240 239 236 235 234 233 233 234 234 235 235 236 236 236 237 237 236 235 236 236 236 237 236 237 239 239
280 279 278 277 277 274 271 267 261 259 258 255 254 252 251 251 250 249 247 245 243 242 242 242 239 236 234 233 232 232 233 233 234 235 236 237 236 237 237 237 236 236 236 236 236 236 237 238 239
282 279 278 277 278 275 272 270 264 262 260 259 257 255 252 252 251 249 247 246 244 243 243 242 239 235 234 233 232 232 233 233 235 236 236 236 237 237 237 238 237 237 237 236 236 236 235 237 239
283 281 280 278 277 275 273 272 270 265 263 262 260 259 257 254 252 251 249 247 246 245 244 241 238 234 233 233 232 232 232 233 234 235 236 236 236 237 237 237 238 238 237 236 236 236 236 237 238
284 281 280 277 277 277 275 276 273 268 265 263 262 260 259 257 254 252 251 249 247 245 244 241 237 235 234 233 233 232 232 233 234 234 236 237 237 237 238 238 238 238 238 238 237 236 236 236 237
285 282 282 279 280 279 279 278 276 272 268 264 263 262 260 258 256 254 252 248 246 245 243 241 239 235 233 233 233 233 232 233 234 234 236 236 237 237 237 238 238 238 237 237 235 234 235 236 237
286 284 283 282 281 281 278 277 276 274 270 265 262 263 263 259 257 255 253 250 247 245 242 240 240 237 234 232 232 232 232 234 235 236 236 237 237 238 238 238 239 238 238 238 236 234 236 237 238
286 285 283 284 284 281 278 275 273 273 271 267 263 263 264 261 258 255 254 252 250 246 243 239 238 238 236 234 234 233 233 234 235 236 237 237 238 238 238 239 239 240 240 242 240 238 238 238 239
286 285 285 284 285 283 279 277 276 274 273 267 264 265 264 262 260 258 256 254 251 247 244 243 241 239 237 235 235 234 233 234 234 235 235 237 237 238 238 239 240 240 241 242 240 240 240 240 240
286 283 283 283 283 284 283 280 277 275 271 268 265 265 265 264 263 260 257 255 253 249 246 244 242 240 237 235 234 234 235 234 235 236 237 237 237 238 238 239 240 240 240 241 241 241 241 241 242
285 283 281 280 280 280 280 280 277 275 272 270 268 267 266 265 263 261 258 256 254 250 247 244 240 239 237 236 235 235 236 236 237 238 238 239 238 238 239 240 240 240 241 241 241 241 241 242 242
Height
5826 5826 5827 5827 5828 5828 5829 5831 5833 5834 5834 5835 5835 5836 5837 5839 5841 5843 5843 5842 5843 5844 5845 5846 5847 5848 5849 5850 5851 5852 5853 5854 5855 5855 5856 5857 5858 5858 5859 5859 5860 5861 5861 5862 5862 5863 5863 5863 5864
5821 5821 5822 5822 5822 5822 5824 5826 5827 5828 5829 5829 5830 5831 5832 5833 5835 5836 5837 5838 5839 5840 5841 5843 5844 5845 5846 5847 5848 5850 5851 5852 5852 5854 5855 5855 5856 5857 5857 5858 5859 5859 5860 5861 5861 5862 5862 5862 5863
5816 5816 5816 5816 5815 5817 5819 5821 5822 5822 5822 5823 5824 5825 5826 5828 5829 5831 5832 5833 5835 5836 5837 5839 5840 5842 5843 5844 5845 5847 5848 5849 5850 5851 5853 5853 5854 5855 5856 5856 5857 5858 5858 5859 5860 5860 5861 5861 5862
5810 5810 5809 5809 5809 5811 5813 5815 5815 5815 5816 5817 5818 5818 5820 5822 5823 5825 5826 5828 5830 5832 5833 5835 5836 5838 5839 5841 5842 5843 5845 5846 5847 5849 5850 5851 5852 5853 5853 5854 5855 5856 5857 5857 5858 5859 5859 5860 5860
5802 5802 5802 5801 5803 5805 5806 5807 5807 5808 5808 5810 5810 5811 5813 5814 5816 5818 5820 5822 5824 5826 5828 5830 5832 5834 5835 5837 5838 5840 5841 5843 5844 5846 5847 5848 5849 5850 5851 5852 5853 5854 5855 5855 5856 5857 5857 5858 5858
5795 5794 5794 5794 5795 5797 5798 5798 5799 5800 5801 5802 5803 5804 5805 5807 5809 5812 5814 5816 5818 5820 5822 5825 5827 5829 5831 5833 5834 5836 5837 5839 5841 5842 5844 5845 5846 5847 5848 5849 5850 5851 5852 5853 5854 5855 5855 5856 5856
5786 5786 5785 5786 5786 5788 5789 5789 5790 5792 5792 5794 5795 5796 5798 5800 5802 5804 5807 5809 5811 5814 5816 5818 5821 5823 5825 5827 5830 5832 5833 5835 5837 5838 5840 5841 5843 5844 5845 5846 5847 5849 5850 5851 5851 5852 5853 5854 5854
5777 5777 5776 5777 5777 5778 5779 5779 5781 5782 5784 5785 5786 5788 5789 5792 5793 5795 5798 5801 5804 5806 5809 5812 5814 5817 5819 5822 5824 5827 5829 5831 5832 5834 5836 5837 5839 5840 5842 5843 5844 5845 5847 5848 5849 5850 5851 5851 5852
5769 5769 5767 5768 5767 5768 5769 5770 5771 5773 5774 5776 5777 5779 5781 5783 5784 5787 5789 5793 5796 5799 5802 5804 5807 5810 5813 5815 5818 5821 5823 5825 5827 5829 5831 5832 5834 5836 5838 5839 5840 5842 5843 5844 5846 5847 5848 5849 5849
5759 5759 5759 5759 5757 5758 5759 5759 5761 5763 5764 5767 5768 5769 5771 5773 5775 5778 5781 5784 5787 5790 5793 5797 5800 5803 5806 5808 5811 5814 5817 5819 5821 5824 5825 5827 5829 5831 5833 5835 5836 5838 5839 5841 5842 5843 5844 5845 5846
5749 5749 5748 5747 5747 5747 5748 5749 5751 5753 5754 5757 5758 5760 5762 5764 5766 5769 5772 5775 5778 5781 5785 5788 5792 5795 5798 5801 5804 5807 5810 5813 5815 5817 5820 5822 5824 5826 5828 5830 5832 5833 5835 5836 5838 5839 5841 5842 5843
5739 5738 5737 5736 5736 5736 5738 5739 5741 5742 5745 5746 5747 5750 5752 5754 5756 5759 5762 5764 5767 5771 5775 5779 5782 5786 5790 5793 5797 5800 5803 5806 5809 5811 5813 5816 5818 5820 5823 5825 5827 5828 5830 5832 5833 5835 5837 5838 5840
5729 5728 5726 5725 5725 5726 5727 5728 5730 5732 5734 5735 5736 5738 5741 5744 5746 5748 5751 5754 5757 5760 5764 5769 5773 5777 5780 5785 5788 5792 5795 5799 5802 5804 5807 5809 5812 5814 5817 5819 5821 5823 5825 5826 5828 5830 5832 5834 5835
5719 5716 5715 5715 5715 5716 5717 5718 5718 5721 5722 5724 5726 5728 5730 5733 5735 5737 5740 5742 5746 5750 5754 5758 5762 5767 5771 5775 5780 5783 5787 5791 5794 5797 5799 5802 5805 5808 5810 5813 5815 5817 5819 5821 5822 5824 5827 5829 5831
5708 5706 5705 5705 5705 5706 5706 5707 5709 5711 5711 5713 5715 5718 5720 5722 5725 5727 5729 5732 5735 5739 5743 5747 5752 5756 5761 5765 5770 5774 5778 5782 5786 5789 5792 5794 5797 5800 5803 5806 5808 5810 5812 5815 5817 5819 5821 5824 5826
5698 5696 5696 5697 5696 5696 5697 5697 5699 5699 5700 5703 5705 5707 5709 5712 5714 5716 5719 5722 5724 5727 5731 5735 5740 5745 5750 5755 5760 5764 5768 5772 5776 5779 5783 5785 5788 5791 5794 5797 5800 5803 5805 5808 5810 5813 5815 5818 5820
5689 5688 5687 5688 5687 5686 5686 5686 5688 5688 5690 5692 5694 5697 5699 5701 5703 5706 5708 5711 5713 5716 5720 5724 5728 5733 5739 5744 5749 5754 5758 5762 5765 5769 5773 5776 5779 5782 5785 5788 5792 5795 5798 5800 5803 5806 5809 5811 5814
5681 5680 5679 5678 5677 5677 5676 5676 5677 5677 5679 5682 5684 5686 5688 5690 5693 5695 5697 5699 5702 5705 5708 5712 5716 5721 5727 5732 5737 5742 5747 5751 5755 5759 5763 5766 5770 5773 5776 5779 5783 5786 5789 5792 5796 5799 5801 5804 5807
5673 5672 5671 5670 5668 5668 5667 5667 5667 5668 5669 5671 5673 5676 5678 5680 5682 5683 5685 5688 5690 5693 5697 5700 5704 5709 5715 5720 5726 5731 5736 5741 5745 5749 5753 5757 5760 5764 5767 5770 5773 5777 5780 5784 5787 5791 5793 5796 5799
5666 5664 5663 5662 5660 5659 5658 5658 5658 5658 5659 5661 5663 5665 5667 5669 5671 5672 5673 5675 5678 5681 5685 5689 5693 5697 5703 5708 5714 5720 5725 5730 5734 5739 5743 5747 5751 5754 5758 5761 5764 5767 5771 5775 5778 5782 5785 5788 5792
5658 5656 5655 5653 5652 5650 5649 5649 5650 5649 5650 5651 5652 5654 5656 5658 5659 5661 5662 5664 5667 5670 5673 5677 5681 5685 5690 5696 5702 5708 5713 5719 5723 5728 5733 5737 5740 5744 5748 5752 5755 5758 5762 5765 5769 5773 5776 5780 5783
5651 5649 5647 5645 5643 5642 5641 5639 5641 5641 5640 5641 5642 5644 5645 5647 5648 5649 5651 5653 5655 5658 5661 5664 5668 5673 5678 5683 5690 5696 5703 5708 5713 5719 5723 5726 5730 5734 5738 5742 5745 5749 5752 5756 5760 5763 5767 5770 5774
5643 5641 5640 5637 5635 5634 5633 5632 5633 5632 5631 5632 5632 5633 5634 5636 5637 5638 5640 5641 5643 5645 5648 5651 5655 5661 5666 5671 5678 5685 5691 5697 5702 5707 5712 5716 5720 5724 5728 5732 5735 5739 5743 5746 5750 5753 5757 5761 5764
5636 5634 5632 5630 5628 5627 5626 5624 5623 5623 5623 5623 5624 5624 5625 5625 5627 5628 5629 5630 5631 5633 5635 5638 5643 5648 5654 5660 5666 5673 5680 5686 5691 5696 5701 5706 5710 5714 5718 5722 5726 5730 5733 5737 5740 5744 5748 5752 5755
5629 5627 5624 5621 5619 5619 5618 5615 5615 5615 5614 5614 5615 5615 5615 5616 5616 5617 5618 5619 5621 5622 5624 5627 5631 5637 5642 5648 5655 5661 5668 5674 5680 5685 5690 5695 5699 5704 5708 5711 5716 5720 5723 5727 5730 5734 5738 5742 5746
5621 5619 5617 5614 5612 5611 5610 5607 5608 5607 5606 5605 5605 5606 5606 5606 5606 5607 5607 5609 5610 5612 5614 5617 5621 5625 5631 5637 5643 5649 5656 5662 5668 5673 5679 5684 5689 5693 5697 5701 5705 5709 5713 5717 5720 5724 5728 5733 5736
5613 5611 5610 5607 5604 5603 5601 5601 5600 5599 5598 5597 5597 5597 5597 5597 5597 5597 5598 5599 5600 5601 5603 5607 5610 5614 5619 5625 5632 5638 5645 5651 5657 5662 5667 5672 5677 5682 5686 5690 5694 5698 5702 5706 5711 5714 5718 5722 5726
5606 5604 5602 5599 5596 5594 5593 5593 5593 5591 5590 5590 5589 5589 5589 5589 5589 5589 5589 5590 5590 5591 5593 5596 5600 5603 5608 5614 5620 5627 5633 5639 5644 5649 5654 5660 5665 5670 5675 5679 5683 5687 5691 5696 5700 5704 5708 5712 5716
5599 5597 5594 5592 5590 5587 5585 5589 5585 5584 5582 5582 5582 5581 5581 5581 5581 5581 5581 5581 5582 5582 5584 5586 5590 5594 5598 5603 5609 5615 5621 5627 5632 5637 5643 5648 5653 5658 5662 5667 5671 5676 5680 5685 5689 5693 5697 5701 5705
5590 5589 5587 5586 5583 5581 5579 5582 5578 5577 5575 5574 5574 5573 5572 5572 5572 5572 5572 5573 5573 5574 5575 5577 5581 5585 5589 5594 5599 5604 5610 5615 5620 5626 5631 5635 5641 5645 5650 5655 5659 5664 5668 5673 5677 5682 5686 5690 5694